TimeCDT,TemperatureF,Dew PointF,Humidity,Sea Level PressureIn,VisibilityMPH,Wind Direction,Wind SpeedMPH,Gust SpeedMPH,PrecipitationIn,Events,Conditions,WindDirDegrees,DateUTC
12:54 AM,82.9,63.0,51,29.93,10.0,SSW,15.0,-,N/A,,Clear,210,2013-07-19 05:54:00
1:54 AM,81.0,63.0,54,29.91,10.0,SSW,13.8,-,N/A,,Clear,210,2013-07-19 06:54:00
2:54 AM,80.1,63.0,56,29.91,10.0,SW,11.5,-,N/A,,Clear,220,2013-07-19 07:54:00
3:54 AM,77.0,63.0,62,29.90,10.0,SSW,8.1,-,N/A,,Clear,200,2013-07-19 08:54:00
4:54 AM,75.9,63.0,64,29.89,10.0,SSW,6.9,-,N/A,,Clear,210,2013-07-19 09:54:00
5:54 AM,75.0,63.0,66,29.90,10.0,SSW,8.1,-,N/A,,Clear,210,2013-07-19 10:54:00
6:54 AM,73.0,64.0,73,29.90,10.0,SSW,3.5,-,N/A,,Clear,200,2013-07-19 11:54:00
7:54 AM,78.1,64.0,62,29.91,10.0,SW,9.2,-,N/A,,Clear,220,2013-07-19 12:54:00
8:54 AM,79.0,64.9,62,29.93,10.0,WSW,3.5,-,N/A,,Clear,240,2013-07-19 13:54:00
9:54 AM,81.0,66.0,60,29.93,10.0,West,8.1,-,N/A,,Clear,270,2013-07-19 14:54:00
10:54 AM,82.9,64.9,54,29.93,10.0,WSW,10.4,-,N/A,,Clear,250,2013-07-19 15:54:00
11:54 AM,84.9,66.0,53,29.93,10.0,Variable,3.5,-,N/A,,Clear,0,2013-07-19 16:54:00
12:54 PM,89.1,64.9,45,29.92,10.0,North,6.9,-,N/A,,Partly Cloudy,350,2013-07-19 17:54:00
1:54 PM,91.0,66.0,44,29.91,10.0,Variable,3.5,-,N/A,,Clear,0,2013-07-19 18:54:00
2:54 PM,93.0,66.9,42,29.90,10.0,Variable,3.5,-,N/A,,Scattered Clouds,0,2013-07-19 19:54:00
3:54 PM,95.0,64.9,37,29.89,10.0,NNE,6.9,-,N/A,,Scattered Clouds,20,2013-07-19 20:54:00
4:54 PM,93.0,61.0,34,29.88,10.0,North,10.4,-,N/A,,Mostly Cloudy,10,2013-07-19 21:54:00
5:54 PM,91.0,60.1,35,29.88,10.0,North,8.1,-,N/A,,Clear,10,2013-07-19 22:54:00
6:54 PM,90.0,57.0,33,29.87,10.0,NE,5.8,-,N/A,,Clear,40,2013-07-19 23:54:00
7:54 PM,89.1,63.0,42,29.86,10.0,NE,6.9,-,N/A,,Clear,40,2013-07-20 00:54:00
8:54 PM,80.1,66.0,62,29.88,10.0,NNE,4.6,-,N/A,,Clear,20,2013-07-20 01:54:00
9:54 PM,78.1,64.0,62,29.90,10.0,North,5.8,-,N/A,,Clear,360,2013-07-20 02:54:00
10:54 PM,75.9,63.0,64,29.91,10.0,North,3.5,-,N/A,,Clear,10,2013-07-20 03:54:00
11:54 PM,75.0,63.0,66,29.92,10.0,North,8.1,-,N/A,,Clear,350,2013-07-20 04:54:00